Location: Fort Wayne
(41.1310°N, 85.1290°W)
Time: 07:53:05
(UTC-04:00)

Cosmos 1000 Rocket - Visible Passes

Search period start: 23 May 2015 00:00
Search period end: 02 June 2015 00:00
Orbit: 954 x 993 km, 82.9° (Epoch: 23 May)

Date Brightness Start Highest point End Pass type
(mag) Time Alt. Az. Time Alt. Az. Time Alt. Az.
23 May 6.6 00:11:44 10° NE 00:13:48 12° ENE 00:16:09 10° E visible
23 May 4.3 01:54:09 10° N 02:00:19 83° E 02:00:46 77° SE visible
23 May 6.3 03:41:58 10° NW 03:44:56 13° W 03:45:22 13° W visible
24 May 6.0 00:34:35 10° NNE 00:39:09 22° ENE 00:40:40 20° E visible
24 May 4.6 02:18:59 10° NNW 02:24:59 55° W 02:25:17 54° WSW visible
25 May 5.2 00:58:35 10° N 01:04:16 38° ENE 01:05:12 37° E visible
25 May 5.4 02:44:11 10° NNW 02:49:30 30° W 02:49:48 30° W visible
26 May 4.4 01:23:01 10° N 01:29:09 69° E 01:29:44 65° ESE visible
26 May 6.2 03:10:03 10° NW 03:13:54 17° W 03:14:20 17° W visible
27 May 6.2 00:03:50 10° NNE 00:07:49 18° ENE 00:09:40 16° E visible
27 May 4.4 01:47:44 10° NNW 01:53:51 67° W 01:54:16 65° WSW visible
28 May 5.5 00:27:36 10° NNE 00:32:59 32° ENE 00:34:13 30° E visible
28 May 5.2 02:12:49 10° NNW 02:18:25 37° W 02:18:50 36° W visible
29 May 4.6 00:51:54 10° N 00:57:57 57° E 00:58:47 53° ESE visible
29 May 6.0 02:38:24 10° NW 02:42:51 21° W 02:43:24 20° W visible
29 May 6.4 23:33:14 10° NNE 23:36:26 15° ENE 23:38:45 13° E visible
30 May 4.3 01:16:32 10° N 01:22:42 81° W 01:23:22 71° SSW visible
30 May 6.6 03:05:53 10° WNW 03:07:10 10° W 03:07:59 10° W visible
30 May 5.7 23:56:41 10° NNE 00:01:42 26° ENE 00:03:20 24° E visible
31 May 4.9 01:41:29 10° NNW 01:47:18 45° W 01:47:57 43° WSW visible
01 Jun 4.9 00:20:50 10° N 00:26:43 47° ENE 00:27:56 42° ESE visible
01 Jun 5.8 02:06:52 10° NNW 02:11:47 25° W 02:12:33 24° W visible
01 Jun 6.5 23:02:58 10° NE 23:05:02 12° ENE 23:07:30 10° E visible
